{"data":{"norad_id":81390,"epoch":"2026-09-09T23:08:55.182048Z","epoch_age_seconds":924972,"freshness":"AGED","line1":"1 81390U          26252.96452757  .00000151  00000+0  15061-2 0  9994","line2":"2 81390 103.0953 164.6552 0180559  29.3152 331.7894 12.35638730533591","mean_motion":12.3563873,"eccentricity":0.0180559,"inclination_deg":103.0953,"raan_deg":164.6552,"arg_perigee_deg":29.3152,"mean_anomaly_deg":331.7894,"bstar":0.0015061,"rev_number":53359,"period_min":116.53891748764,"perigee_km":1382.444510604,"apogee_km":1667.8462635089,"semimajor_km":7903.2823870564,"source":"CELESTRAK","updated_at":"2026-09-20T09:00:32.387493Z"}}